• Join FlightAware (Why Join?)
  • Login
  • US Flag 
09:24AM EDT


 

Airport Tracker/Info


-or-


 

Live Flight TrackerFlight Track Log ✈ FFT403 ✈ 01-May-2013 ✈ KMDW - KDEN

Flight Track Log - Related Links

Times and Time Zones

All times are in EDT time to prevent confusion due to time zone crossing. See the FFT403 flight status page for this flight to view local times or setup timezone preferences in your user account.

Time Position Orientation Groundspeed Altitude Reporting Facility
EDT Latitude Longitude Course Direction KTS MPH feet Rate Location/Type
07:15AM 41.7667 -87.7833 255° West 135 155 2,800  Level Chicago TRACON
07:16AM 41.7500 -87.8667 255° West 208 239 4,000 780 Climbing Chicago TRACON
07:17AM 41.7536 -87.8767 296° West 185 213 4,000 1,020 Level Chicago Center
07:18AM 41.7536 -87.9700 270° West 233 268 5,400 1,620 Climbing Chicago Center
07:19AM 41.7531 -88.0672 270° West 258 297 7,300 2,580 Climbing Chicago Center
07:20AM 41.7950 -88.1828 296° West 299 344 10,700 2,460 Climbing Chicago Center
07:21AM 41.8228 -88.2900 289° West 318 366 12,400 1,380 Climbing Chicago Center
07:22AM 41.8294 -88.4214 274° West 353 406 13,600 1,560 Climbing Chicago Center
07:23AM 41.8314 -88.5669 271° West 388 447 15,700 2,040 Climbing Chicago Center
07:24AM 41.8325 -88.7172 271° West 405 466 17,900 1,800 Climbing Chicago Center
07:25AM 41.8281 -88.8725 268° West 417 480 19,400 1,680 Climbing Chicago Center
07:26AM 41.8172 -89.0300 265° West 425 489 21,400 1,860 Climbing Chicago Center
07:27AM 41.8033 -89.2242 265° West 440 506 23,300 1,560 Climbing Chicago Center
07:28AM 41.7925 -89.3878 265° West 444 511 24,700 1,200 Climbing Chicago Center
07:29AM 41.7872 -89.5558 268° West 452 520 25,800 1,200 Climbing Chicago Center
07:30AM 41.7808 -89.7067 267° West 458 527 27,200 1,560 Climbing Chicago Center
07:31AM 41.7714 -89.9117 267° West 460 529 29,000 1,500 Climbing Chicago Center
07:32AM 41.7647 -90.0792 267° West 456 525 30,300 1,320 Climbing Chicago Center
07:33AM 41.7567 -90.2489 266° West 458 527 31,800 1,380 Climbing Chicago Center
07:34AM 41.7478 -90.4181 266° West 458 527 33,200 1,200 Climbing Chicago Center
07:35AM 41.7378 -90.5825 265° West 451 519 34,300 1,080 Climbing Chicago Center
07:36AM 41.7292 -90.7636 266° West 447 514 35,500 1,020 Climbing Chicago Center
07:37AM 41.7197 -90.9242 266° West 440 506 36,500 780 Climbing Chicago Center
07:38AM 41.7106 -91.0861 266° West 439 505 37,200 660 Climbing Chicago Center
07:39AM 41.7011 -91.2489 266° West 441 507 37,900 360 Climbing Chicago Center
07:40AM 41.6911 -91.4064 265° West 431 496 38,000  Climbing Chicago Center
07:41AM 41.6822 -91.5658 266° West 432 497 38,000  Level Chicago Center
07:42AM 41.6700 -91.7533 265° West 426 490 38,000  Level Chicago Center
07:43AM 41.6603 -91.9117 265° West 428 493 38,000  Level Chicago Center
07:44AM 41.6497 -92.0689 265° West 428 493 38,000  Level Chicago Center
07:45AM 41.6394 -92.2256 265° West 427 491 38,000  Level Chicago Center
07:46AM 41.6292 -92.3800 265° West 423 487 38,000  Level Chicago Center
07:47AM 41.6183 -92.5350 265° West 422 486 38,000  Level Chicago Center
07:48AM 41.6078 -92.6881 265° West 418 481 38,000  Level Chicago Center
07:49AM 41.5947 -92.8594 264° West 413 475 38,000  Level Chicago Center
07:50AM 41.5833 -93.0153 264° West 415 478 38,000  Level Minneapolis Center
07:52AM 41.5706 -93.1947 265° West 412 474 38,000  Level Minneapolis Center
07:53AM 41.5586 -93.3475 264° West 415 478 38,000  Level Minneapolis Center
07:54AM 41.5469 -93.4994 264° West 416 479 38,000  Level Minneapolis Center
07:55AM 41.5364 -93.6483 265° West 411 473 38,000  Level Minneapolis Center
07:56AM 41.5242 -93.8014 264° West 416 479 38,000  Level Minneapolis Center
07:57AM 41.5108 -93.9558 263° West 419 482 38,000  Level Minneapolis Center
07:58AM 41.4958 -94.1108 263° West 423 487 38,000  Level Minneapolis Center
07:59AM 41.4833 -94.2600 264° West 416 479 38,000  Level Minneapolis Center
08:00AM 41.4681 -94.4436 264° West 416 479 38,000  Level Minneapolis Center
08:01AM 41.4553 -94.5983 264° West 420 483 38,000  Level Minneapolis Center
08:02AM 41.4419 -94.7508 263° West 416 479 38,000  Level Minneapolis Center
08:03AM 41.4281 -94.9056 263° West 419 482 38,000  Level Minneapolis Center
08:04AM 41.4144 -95.0553 263° West 410 472 38,000  Level Minneapolis Center
08:05AM 41.4000 -95.2103 263° West 420 483 38,000  Level Minneapolis Center
08:06AM 41.3856 -95.3622 263° West 414 476 38,000  Level Minneapolis Center
08:07AM 41.3703 -95.5153 262° West 416 479 38,000  Level Minneapolis Center
08:08AM 41.3536 -95.6800 262° West 412 474 38,000  Level Minneapolis Center
08:09AM 41.3400 -95.8281 263° West 404 465 38,000 -60 Level Minneapolis Center
08:10AM 41.3250 -95.9789 263° West 407 468 37,900  Descending Minneapolis Center
08:11AM 41.3094 -96.1272 262° West 406 467 38,000  Climbing Minneapolis Center
08:12AM 41.2936 -96.2783 262° West 410 472 38,000  Level Minneapolis Center
08:13AM 41.2789 -96.4297 263° West 414 476 38,000  Level Minneapolis Center
08:14AM 41.2636 -96.5786 262° West 410 472 38,000  Level Minneapolis Center
08:15AM 41.2467 -96.7261 261° West 406 467 38,000  Level Minneapolis Center
08:16AM 41.2308 -96.8725 262° West 402 463 38,000  Level Minneapolis Center
08:17AM 41.2128 -97.0444 262° West 396 456 38,000  Level Minneapolis Center
08:18AM 41.1958 -97.1872 261° West 393 452 38,000  Level Minneapolis Center
08:19AM 41.1797 -97.3317 262° West 395 455 38,000  Level Minneapolis Center
08:20AM 41.1628 -97.4786 261° West 397 457 38,100  Climbing Minneapolis Center
08:21AM 41.1464 -97.6244 262° West 398 458 38,000 -60 Descending Minneapolis Center
08:22AM 41.1289 -97.7672 261° West 395 455 38,000  Level Minneapolis Center
08:23AM 41.1128 -97.9106 262° West 393 452 38,000  Level Minneapolis Center
08:24AM 41.0961 -98.0533 261° West 391 450 38,000  Level Minneapolis Center
08:25AM 41.0794 -98.1958 261° West 391 450 38,000  Level Minneapolis Center
08:26AM 41.0622 -98.3378 261° West 390 449 38,000  Level Minneapolis Center
08:27AM 41.0433 -98.5036 261° West 390 449 38,000  Level Minneapolis Center
08:28AM 41.0283 -98.6447 262° West 388 447 38,000  Level Minneapolis Center
08:29AM 41.0125 -98.7842 261° West 385 443 38,000  Level Minneapolis Center
08:30AM 40.9961 -98.9261 261° West 389 448 38,000  Level Minneapolis Center
08:31AM 40.9808 -99.0661 262° West 386 444 38,000  Level Minneapolis Center
08:32AM 40.9731 -99.1378 262° West 385 443 38,000  Level Denver Center
08:33AM 40.9572 -99.2783 262° West 385 443 38,000  Level Denver Center
08:34AM 40.9403 -99.4178 261° West 385 443 38,000  Level Denver Center
08:35AM 40.9236 -99.5578 261° West 385 443 38,000  Level Denver Center
08:36AM 40.9075 -99.6956 261° West 381 438 38,000  Level Denver Center
08:37AM 40.8869 -99.8553 260° West 380 437 38,000  Level Denver Center
08:38AM 40.8714 -99.9856 261° West 377 434 38,000  Level Denver Center
08:39AM 40.8547 -100.1147 260° West 374 430 38,000  Level Denver Center
08:40AM 40.8358 -100.2661 261° West 374 430 38,000  Level Denver Center
08:41AM 40.8197 -100.3969 261° West 376 433 38,000  Level Denver Center
08:42AM 40.8031 -100.5281 261° West 378 435 38,000  Level Denver Center
08:43AM 40.7861 -100.6603 260° West 378 435 38,000  Level Denver Center
08:44AM 40.7594 -100.8172 257° West 382 440 38,000  Level Denver Center
08:45AM 40.7383 -100.9469 258° West 375 432 38,000  Level Denver Center
08:46AM 40.7178 -101.0736 258° West 370 426 38,000  Level Denver Center
08:47AM 40.6922 -101.2222 257° West 372 428 38,000  Level Denver Center
08:48AM 40.6703 -101.3483 257° West 370 426 38,000  Level Denver Center
08:49AM 40.6481 -101.4750 257° West 370 426 38,000  Level Denver Center
08:50AM 40.6231 -101.6214 257° West 366 421 38,000  Level Denver Center
08:51AM 40.5997 -101.7458 256° West 367 422 38,000  Level Denver Center
08:52AM 40.5778 -101.8719 257° West 368 423 38,000  Level Denver Center
08:53AM 40.5483 -102.0186 255° West 370 426 38,000  Level Denver Center
08:54AM 40.5264 -102.1447 257° West 371 427 38,000  Level Denver Center
08:55AM 40.5028 -102.2694 256° West 367 422 38,000  Level Denver Center
08:56AM 40.4758 -102.4156 256° West 370 426 38,000  Level Denver Center
08:57AM 40.4519 -102.5406 256° West 369 425 38,000 -60 Level Denver Center
08:58AM 40.4261 -102.6769 256° West 374 430 37,900 -600 Descending Denver Center
08:59AM 40.4011 -102.8089 256° West 369 425 36,800 -1,680 Descending Denver Center
09:00AM 40.3778 -102.9433 257° West 375 432 34,500 -2,100 Descending Denver Center
09:01AM 40.3514 -103.0731 255° West 367 422 32,600 -1,860 Descending Denver Center
09:02AM 40.3256 -103.2056 256° West 373 429 30,800 -1,860 Descending Denver Center
09:03AM 40.3008 -103.3364 256° West 367 422 28,900 -1,860 Descending Denver Center
09:04AM 40.2750 -103.4714 256° West 377 434 27,100 -1,800 Descending Denver Center
09:05AM 40.2500 -103.5969 255° West 358 412 25,300 -1,800 Descending Denver Center
09:06AM 40.2244 -103.7275 256° West 349 402 23,500 -2,160 Descending Denver Center
09:07AM 40.2011 -103.8508 256° West 328 377 21,000 -1,680 Descending Denver Center
09:08AM 40.1569 -103.9456 239° Southwest 293 337 20,100 -1,440 Descending Denver Center
09:09AM 40.1167 -104.0336 239° Southwest 284 327 18,100 -1,740 Descending Denver Center
09:10AM 40.0736 -104.1253 238° Southwest 294 338 16,600 -1,740 Descending Denver Center
09:11AM 40.0297 -104.2203 239° Southwest 287 330 14,600 -1,320 Descending Denver Center
09:12AM 39.9872 -104.3114 239° Southwest 296 341 14,000 -300 Descending Denver Center
09:13AM 39.9442 -104.4039 239° Southwest 299 344 14,000  Level Denver Center
09:14AM 39.9333 -104.4333 244° Southwest 292 336 14,000 -1,380 Level Denver TRACON
09:15AM 39.8667 -104.5000 218° Southwest 298 343 12,100 -1,560 Descending Denver TRACON
09:15AM 39.8231 -104.4981 178° South 272 313 11,500 -1,020 Descending Denver Center
09:17AM 39.7547 -104.5022 183° South 246 283 10,400 -1,080 Descending Denver Center
09:18AM 39.6836 -104.5031 181° South 236 272 9,400 -720 Descending Denver Center
09:19AM 39.6181 -104.5036 180° South 237 273 9,000 -240 Descending Denver Center
09:20AM 39.5628 -104.5050 181° South 206 237 9,000  Level Denver Center
09:21AM 39.5103 -104.5047 180° South 193 222 9,000  Level Denver Center
09:22AM 39.4572 -104.5106 185° South 193 222 9,000  Level Denver Center
09:23AM 39.4494 -104.5889 263° West 206 237 9,000  Level Denver Center
09:24AM 39.4836 -104.6372 312° West 199 229 9,000  Level Denver Center
09:25AM 39.5331 -104.6639 337° Northwest 194 223 9,000  Level Denver Center
09:26AM 39.5883 -104.6639 360° North 198 228 9,000  Level Denver Center
09:27AM 39.6408 -104.6628 North 190 219 9,000 -540 Level Denver Center
09:28AM 39.6992 -104.6619 North 195 224 8,000 -1,080 Descending Denver Center
09:29AM 39.7522 -104.6614 360° North 192 221 6,900 -960 Descending Denver Center
09:30AM 39.7961 -104.6608 North 156 180 6,100 -840 Descending Denver Center
09:31AM 39.8336 -104.6614 359° North 138 159 5,300 -840 Descending Denver Center